User: anonymous   Login
Location: Unspecified
(0.0000°N, 0.0000°E)
Time: 19:03:35
(UTC+00:00)
Language:

STARLINK-11715 [DTC] - Orbit

View from above orbital plane
View from above orbital plane
View from above satellite
View from above satellite

Ground track
Ground track

The orbit is defined by the following mean orbital elements,

1 64076U          26145.01025843 +.00000000 +00000-0 +94850-3 0 00006
2 64076  43.0011 357.9845 0001859 274.0327  86.0328 15.70859790    01
Epoch (UTC): 25 May 2026 00:14:46
Eccentricity: 0.0001859
inclination: 43.0011°
perigee height: 355 km
apogee height: 358 km
right ascension of ascending node: 357.9845°
argument of perigee: 274.0327°
revolutions per day: 15.70859790
mean anomaly at epoch: 86.0328°

The dashed part of the orbit path shows where the satellite is in the earth's shadow,  

DLR